When you browse on this site, cookies collect data to enhance your experience and personalize the content and advertising you see.
Visit our Privacy Policy to learn more. By continuing to use the site, you agree to this use of cookies and data.

Stündliche Wetter Arkadia

Heute, 10 August, Montag

Zeit Temperatur Niederschläge Wind Luftdruck Luftfeuchtigkeit
00:00 +18°C° 0 mm 2 m/S 663 mmHg 67%
01:00 +17°C° 0 mm 2 m/S 663 mmHg 68%
02:00 +17°C° 0 mm 2 m/S 663 mmHg 69%
03:00 +17°C° 0 mm 2 m/S 663 mmHg 70%
04:00 +17°C° 0 mm 2 m/S 663 mmHg 71%
05:00 +18°C° 0 mm 2 m/S 663 mmHg 65%
06:00 +19°C° 0 mm 3 m/S 664 mmHg 58%
07:00 +21°C° 0 mm 3 m/S 664 mmHg 52%
08:00 +22°C° 0 mm 3 m/S 665 mmHg 47%
09:00 +25°C° 0 mm 4 m/S 666 mmHg 42%
10:00 +26°C° 0 mm 5 m/S 667 mmHg 36%
11:00 +27°C° 0 mm 4 m/S 667 mmHg 35%
12:00 +27°C° 0 mm 4 m/S 667 mmHg 34%
13:00 +28°C° 0 mm 4 m/S 667 mmHg 33%
14:00 +27°C° 0 mm 4 m/S 666 mmHg 35%
15:00 +27°C° 0 mm 3 m/S 666 mmHg 36%
16:00 +26°C° 0 mm 3 m/S 666 mmHg 37%
17:00 +24°C° 0 mm 2 m/S 666 mmHg 43%
18:00 +22°C° 0 mm 1 m/S 665 mmHg 48%
19:00 +21°C° 0 mm 1 m/S 665 mmHg 54%
20:00 +20°C° 0 mm 1 m/S 665 mmHg 55%
21:00 +20°C° 0 mm 1 m/S 665 mmHg 56%
22:00 +19°C° 0 mm 1 m/S 665 mmHg 57%
23:00 +19°C° 0 mm 1 m/S 665 mmHg 56%

Morgen, 11 August, Dienstag

Zeit Temperatur Niederschläge Wind Luftdruck Luftfeuchtigkeit
00:00 +19°C° 0 mm 1 m/S 665 mmHg 55%
01:00 +19°C° 0 mm 1 m/S 665 mmHg 54%
02:00 +18°C° 0 mm 1 m/S 665 mmHg 53%
03:00 +18°C° 0 mm 1 m/S 665 mmHg 52%
04:00 +18°C° 0 mm 1 m/S 665 mmHg 51%
05:00 +20°C° 0 mm 1 m/S 665 mmHg 47%
06:00 +22°C° 0 mm 1 m/S 666 mmHg 43%
07:00 +24°C° 0 mm 1 m/S 666 mmHg 39%
08:00 +25°C° 0 mm 1 m/S 667 mmHg 36%
09:00 +27°C° 0 mm 1 m/S 668 mmHg 33%
10:00 +29°C° 0 mm 2 m/S 668 mmHg 30%
11:00 +29°C° 0 mm 2 m/S 668 mmHg 31%
12:00 +29°C° 0 mm 2 m/S 668 mmHg 31%
13:00 +28°C° 0 mm 3 m/S 668 mmHg 31%
14:00 +28°C° 0 mm 3 m/S 668 mmHg 35%
15:00 +27°C° 0 mm 2 m/S 667 mmHg 39%
16:00 +26°C° 0 mm 2 m/S 667 mmHg 42%
17:00 +24°C° 0 mm 1 m/S 667 mmHg 46%
18:00 +23°C° 0 mm 1 m/S 666 mmHg 50%
19:00 +20°C° 0 mm 0 m/S 666 mmHg 54%
20:00 +19°C° 0 mm 0 m/S 666 mmHg 56%
21:00 +21°C° 0 mm 1 m/S 666 mmHg 57%
22:00 +20°C° 0 mm 1 m/S 665 mmHg 58%
23:00 +20°C° 0 mm 1 m/S 665 mmHg 58%

übermorgen, 12 August, Mittwoch

Zeit Temperatur Niederschläge Wind Luftdruck Luftfeuchtigkeit
00:00 +19°C° 0 mm 1 m/S 665 mmHg 58%
01:00 +19°C° 0 mm 1 m/S 664 mmHg 57%
02:00 +19°C° 0 mm 1 m/S 664 mmHg 57%
03:00 +19°C° 0 mm 1 m/S 664 mmHg 57%
04:00 +19°C° 0 mm 1 m/S 664 mmHg 57%
05:00 +21°C° 0 mm 1 m/S 665 mmHg 51%
06:00 +22°C° 0 mm 1 m/S 665 mmHg 46%
07:00 +24°C° 0 mm 1 m/S 666 mmHg 40%
08:00 +26°C° 0 mm 1 m/S 666 mmHg 36%
09:00 +28°C° 0 mm 1 m/S 667 mmHg 32%
10:00 +30°C° 0 mm 2 m/S 668 mmHg 27%
11:00 +30°C° 0 mm 2 m/S 668 mmHg 27%
12:00 +30°C° 0 mm 3 m/S 668 mmHg 27%
13:00 +30°C° 0 mm 3 m/S 667 mmHg 27%
14:00 +29°C° 0 mm 3 m/S 667 mmHg 30%
15:00 +28°C° 0 mm 3 m/S 667 mmHg 34%
16:00 +27°C° 0 mm 2 m/S 666 mmHg 37%
17:00 +26°C° 0 mm 2 m/S 666 mmHg 42%
18:00 +24°C° 0 mm 1 m/S 666 mmHg 47%
19:00 +23°C° 0 mm 1 m/S 665 mmHg 52%
20:00 +22°C° 0 mm 1 m/S 665 mmHg 53%
21:00 +21°C° 0 mm 1 m/S 665 mmHg 54%
22:00 +21°C° 0 mm 1 m/S 665 mmHg 56%
23:00 +21°C° 0 mm 1 m/S 665 mmHg 55%

13 August, Donnerstag

Zeit Temperatur Niederschläge Wind Luftdruck Luftfeuchtigkeit
00:00 +20°C° 0 mm 1 m/S 665 mmHg 55%
01:00 +20°C° 0 mm 1 m/S 664 mmHg 55%
02:00 +20°C° 0 mm 1 m/S 664 mmHg 54%
03:00 +20°C° 0 mm 1 m/S 664 mmHg 54%
04:00 +20°C° 0 mm 1 m/S 664 mmHg 54%
05:00 +22°C° 0 mm 1 m/S 665 mmHg 49%
06:00 +24°C° 0 mm 1 m/S 666 mmHg 44%
07:00 +25°C° 0 mm 1 m/S 666 mmHg 39%
08:00 +27°C° 0 mm 1 m/S 667 mmHg 35%
09:00 +29°C° 0 mm 1 m/S 667 mmHg 31%
10:00 +31°C° 0 mm 2 m/S 668 mmHg 27%
11:00 +31°C° 0 mm 2 m/S 668 mmHg 26%
12:00 +31°C° 0 mm 3 m/S 668 mmHg 26%
13:00 +33°C° 0 mm 3 m/S 668 mmHg 26%
14:00 +31°C° 0 mm 3 m/S 667 mmHg 29%
15:00 +30°C° 0 mm 3 m/S 667 mmHg 32%
16:00 +29°C° 0 mm 3 m/S 666 mmHg 35%
17:00 +27°C° 0 mm 2 m/S 666 mmHg 40%
18:00 +25°C° 0 mm 1 m/S 666 mmHg 46%
19:00 +21°C° 0 mm 0 m/S 665 mmHg 51%
20:00 +21°C° 0 mm 0 m/S 665 mmHg 52%
21:00 +20°C° 0 mm 0 m/S 665 mmHg 53%
22:00 +19°C° 0 mm 0 m/S 665 mmHg 54%
23:00 +19°C° 0 mm 0 m/S 665 mmHg 54%

14 August, Freitag

Zeit Temperatur Niederschläge Wind Luftdruck Luftfeuchtigkeit
00:00 +21°C° 0 mm 1 m/S 664 mmHg 55%
01:00 +21°C° 0 mm 1 m/S 664 mmHg 55%
02:00 +21°C° 0 mm 1 m/S 664 mmHg 55%
03:00 +20°C° 0 mm 1 m/S 664 mmHg 56%
04:00 +20°C° 0 mm 1 m/S 664 mmHg 56%
05:00 +22°C° 0 mm 1 m/S 665 mmHg 52%
06:00 +22°C° 0 mm 0 m/S 665 mmHg 47%
07:00 +24°C° 0 mm 0 m/S 666 mmHg 43%
08:00 +27°C° 0 mm 1 m/S 667 mmHg 39%
09:00 +29°C° 0 mm 1 m/S 667 mmHg 35%
10:00 +31°C° 0 mm 1 m/S 668 mmHg 31%
11:00 +31°C° 0 mm 2 m/S 668 mmHg 30%
12:00 +31°C° 0 mm 2 m/S 667 mmHg 29%
13:00 +33°C° 0 mm 3 m/S 667 mmHg 28%
14:00 +31°C° 0 mm 3 m/S 667 mmHg 31%
15:00 +30°C° 0 mm 3 m/S 666 mmHg 34%
16:00 +29°C° 0 mm 2 m/S 666 mmHg 36%
17:00 +27°C° 0 mm 2 m/S 666 mmHg 43%
18:00 +25°C° 0 mm 1 m/S 665 mmHg 49%
19:00 +22°C° 0 mm 1 m/S 665 mmHg 56%
20:00 +22°C° 0 mm 1 m/S 665 mmHg 58%
21:00 +19°C° 0 mm 0 m/S 665 mmHg 59%
22:00 +19°C° 0 mm 0 m/S 665 mmHg 61%
23:00 +19°C° 0 mm 0 m/S 665 mmHg 62%

15 August, Samstag

Zeit Temperatur Niederschläge Wind Luftdruck Luftfeuchtigkeit
00:00 +18°C° 0 mm 0 m/S 665 mmHg 62%
01:00 +18°C° 0 mm 0 m/S 664 mmHg 63%
02:00 +18°C° 0 mm 0 m/S 664 mmHg 63%
03:00 +20°C° 0 mm 1 m/S 664 mmHg 64%
04:00 +19°C° 0 mm 1 m/S 664 mmHg 64%
05:00 +21°C° 0 mm 1 m/S 664 mmHg 59%
06:00 +23°C° 0 mm 1 m/S 665 mmHg 54%
07:00 +25°C° 0 mm 1 m/S 665 mmHg 49%
08:00 +26°C° 0 mm 1 m/S 666 mmHg 43%
09:00 +28°C° 0 mm 1 m/S 666 mmHg 37%
10:00 +30°C° 0 mm 1 m/S 667 mmHg 32%
11:00 +30°C° 0 mm 2 m/S 667 mmHg 30%
12:00 +31°C° 0 mm 3 m/S 667 mmHg 29%
13:00 +32°C° 0 mm 4 m/S 667 mmHg 28%
14:00 +30°C° 0 mm 4 m/S 666 mmHg 29%
15:00 +29°C° 0 mm 4 m/S 666 mmHg 31%
16:00 +29°C° 0 mm 3 m/S 665 mmHg 33%
17:00 +26°C° 0 mm 2 m/S 664 mmHg 41%
18:00 +24°C° 0 mm 2 m/S 663 mmHg 50%
19:00 +21°C° 0 mm 1 m/S 663 mmHg 58%
20:00 +21°C° 0 mm 1 m/S 663 mmHg 60%
21:00 +20°C° 0 mm 1 m/S 663 mmHg 62%
22:00 +17°C° 0 mm 0 m/S 662 mmHg 63%
23:00 +17°C° 0 mm 0 m/S 662 mmHg 63%
Mehr zeigen